DL5ARK Weather Reports


Display with metric or nautical units.
time (UTC)temp
F
wind
direction
speed
MPH
gust
MPH
rain 1hr
in
rain 24hr
in
rain mn
in
humidity
%
barometer
mb
20260906091206 58 180 4.0 4.0 0.00 0.00 0.00 72 1016.1
20260906090907 58 135 1.0 1.0 0.00 0.00 0.00 72 1016.1
20260906090608 58 90 2.0 2.0 0.00 0.00 0.00 72 1015.9
20260906090305 58 135 2.0 2.0 0.00 0.00 0.00 73 1016.1
20260906090006 58 202 3.0 3.0 0.00 0.00 0.00 74 1016.1
20260906085706 57 337 2.0 2.0 0.00 0.00 0.00 74 1016.1
20260906085406 57 180 2.0 2.0 0.00 0.00 0.00 73 1016.1
20260906085106 57 315 4.0 4.0 0.00 0.00 0.00 74 1016.1
20260906084806 57 180 2.0 2.0 0.00 0.00 0.00 75 1016.1
20260906084509 57 337 2.0 2.0 0.00 0.00 0.00 75 1016.1
20260906084206 57 225 3.0 4.0 0.00 0.00 0.00 76 1016.1
20260906083905 57 337 0.0 0.0 0.00 0.00 0.00 75 1016.1
20260906083606 57 180 3.0 4.0 0.00 0.00 0.00 75 1016.1
20260906083305 57 225 3.0 3.0 0.00 0.00 0.00 75 1016.1
20260906083006 57 180 0.0 0.0 0.00 0.00 0.00 76 1016.1
20260906082708 57 157 1.0 1.0 0.00 0.00 0.00 78 1016.1
20260906082406 56 90 1.0 1.0 0.00 0.00 0.00 78 1016.1
20260906082106 56 202 1.0 1.0 0.00 0.00 0.00 78 1016.1
20260906081805 56 270 0.0 0.0 0.00 0.00 0.00 79 1016.1
20260906081505 56 202 1.0 1.0 0.00 0.00 0.00 79 1016.1
20260906081206 56 225 1.0 2.0 0.00 0.00 0.00 79 1016.1
20260906080907 55 112 1.0 1.0 0.00 0.00 0.00 80 1016.1
20260906080305 55 180 1.0 1.0 0.00 0.00 0.00 80 1016.1
20260906080006 55 315 0.0 0.0 0.00 0.00 0.00 80 1016.1
20260906075706 55 292 2.0 2.0 0.00 0.00 0.00 81 1015.9
20260906075407 55 292 3.0 3.0 0.00 0.00 0.00 81 1016.1
20260906075106 55 202 2.0 2.0 0.00 0.00 0.00 82 1015.9
20260906074805 54 180 2.0 2.0 0.00 0.00 0.00 82 1015.9
20260906074509 53 180 4.0 4.0 0.00 0.00 0.00 82 1015.9
20260906074206 53 180 2.0 2.0 0.00 0.00 0.00 82 1015.9
20260906073906 53 225 3.0 3.0 0.00 0.00 0.00 82 1015.9
20260906073605 53 270 2.0 2.0 0.00 0.00 0.00 82 1015.9
20260906073306 53 337 2.0 2.0 0.00 0.00 0.00 83 1015.9
20260906073008 53 225 0.0 0.0 0.00 0.00 0.00 83 1015.9
20260906072706 52 270 2.0 2.0 0.00 0.00 0.00 84 1015.6
20260906072406 52 225 0.0 0.0 0.00 0.00 0.00 84 1015.9
20260906072105 52 180 0.0 0.0 0.00 0.00 0.00 84 1015.9
20260906071806 52 180 0.0 0.0 0.00 0.00 0.00 85 1015.9
20260906071505 52 135 1.0 1.0 0.00 0.00 0.00 85 1015.9
20260906071205 51 135 0.0 0.0 0.00 0.00 0.00 85 1015.6
20260906070908 51 337 0.0 0.0 0.00 0.00 0.00 85 1015.9
20260906070605 51 180 1.0 1.0 0.00 0.00 0.00 85 1015.6
20260906070306 51 90 0.0 0.0 0.00 0.00 0.00 85 1015.6
20260906070006 52 112 0.0 0.0 0.00 0.00 0.00 86 1015.6
20260906065707 51 337 1.0 1.0 0.00 0.00 0.00 85 1015.6
20260906065405 51 90 0.0 0.0 0.00 0.00 0.00 85 1015.6
20260906065106 51 90 1.0 1.0 0.00 0.00 0.00 85 1015.6
20260906064506 50 90 0.0 0.0 0.00 0.00 0.00 85 1015.6
20260906064206 50 90 0.0 0.0 0.00 0.00 0.00 85 1015.6
20260906063905 50 67 1.0 1.0 0.00 0.00 0.00 85 1015.6
20260906063606 50 90 0.0 0.0 0.00 0.00 0.00 85 1015.6
20260906063006 49 67 1.0 1.0 0.00 0.00 0.00 85 1015.6
20260906062706 49 337 0.0 0.0 0.00 0.00 0.00 84 1015.6
20260906062406 49 90 2.0 2.0 0.00 0.00 0.00 84 1015.6
20260906062105 49 90 1.0 1.0 0.00 0.00 0.00 84 1015.6
20260906061805 49 90 1.0 1.0 0.00 0.00 0.00 84 1015.4
20260906061508 49 90 0.0 0.0 0.00 0.00 0.00 84 1015.6
20260906061205 48 90 1.0 2.0 0.00 0.00 0.00 83 1015.4
20260906060906 47 247 0.0 0.0 0.00 0.00 0.00 82 1015.4
20260906060605 47 247 0.0 0.0 0.00 0.00 0.00 82 1015.6
20260906060306 47 247 0.0 0.0 0.00 0.00 0.00 82 1015.4
20260906060006 47 247 0.0 0.0 0.00 0.00 0.00 81 1015.4
20260906055705 46 67 0.0 0.0 0.00 0.00 0.00 81 1015.4
20260906055105 46 337 0.0 0.0 0.00 0.00 0.00 81 1015.1
20260906054806 46 90 0.0 0.0 0.00 0.00 0.00 81 1015.1
20260906054505 45 90 0.0 0.0 0.00 0.00 0.00 80 1015.1
20260906054205 45 90 0.0 0.0 0.00 0.00 0.00 80 1015.1
20260906053905 45 90 0.0 0.0 0.00 0.00 0.00 80 1015.1
20260906053608 45 90 0.0 0.0 0.00 0.00 0.00 80 1015.1
20260906053306 45 90 0.0 0.0 0.00 0.00 0.00 80 1015.1
20260906053006 45 67 2.0 2.0 0.00 0.00 0.00 80 1015.1
20260906052705 45 315 0.0 0.0 0.00 0.00 0.00 80 1015.1
20260906052406 45 315 0.0 0.0 0.00 0.00 0.00 80 1015.1
20260906052107 44 315 0.0 0.0 0.00 0.00 0.00 81 1015.1
20260906051805 43 337 0.0 0.0 0.00 0.00 0.00 82 1015.1
20260906051509 43 0 0.0 0.0 0.00 0.00 0.00 83 1015.1
20260906051206 42 315 0.0 0.0 0.00 0.00 0.00 84 1015.1
20260906050906 42 270 0.0 0.0 0.00 0.00 0.00 84 1015.1
20260906050606 41 270 0.0 0.0 0.00 0.00 0.00 83 1015.1
20260906050306 40 270 0.0 0.0 0.00 0.00 0.00 82 1015.1
20260906050005 41 225 0.0 0.0 0.00 0.00 0.00 82 1015.1
20260906045706 40 225 1.0 1.0 0.00 0.00 0.00 82 1015.1
20260906045106 40 270 0.0 0.0 0.00 0.00 0.00 82 1014.9
20260906044806 40 270 0.0 0.0 0.00 0.00 0.00 81 1015.1
20260906044506 40 270 0.0 0.0 0.00 0.00 0.00 81 1015.1
20260906044206 40 270 0.0 0.0 0.00 0.00 0.00 81 1015.1
20260906043906 40 270 0.0 0.0 0.00 0.00 0.00 81 1015.1
20260906043606 40 270 0.0 0.0 0.00 0.00 0.00 81 1015.1
20260906043006 40 270 0.0 0.0 0.00 0.00 0.00 80 1014.9
20260906042706 40 270 0.0 0.0 0.00 0.00 0.00 80 1014.9
20260906042406 40 337 0.0 0.0 0.00 0.00 0.00 81 1014.9
20260906042106 41 270 0.0 0.0 0.00 0.00 0.00 80 1014.6
20260906041805 40 337 0.0 0.0 0.00 0.00 0.00 80 1014.6
20260906041506 40 22 0.0 0.0 0.00 0.00 0.00 80 1014.6
20260906040906 40 337 0.0 0.0 0.00 0.00 0.00 80 1014.6
20260906040305 40 315 0.0 0.0 0.00 0.00 0.00 80 1014.6
20260906040005 40 90 0.0 0.0 0.00 0.00 0.00 80 1014.6
20260906035706 40 337 0.0 0.0 0.00 0.00 0.00 80 1014.6
20260906035407 40 45 0.0 0.0 0.00 0.00 0.00 80 1014.6
20260906035109 40 22 0.0 0.0 0.00 0.00 0.00 80 1014.6
20260906034807 41 337 0.0 0.0 0.00 0.00 0.00 81 1014.6
20260906034505 41 22 0.0 0.0 0.00 0.00 0.00 81 1014.6
20260906034206 41 22 0.0 0.0 0.00 0.00 0.00 81 1014.6
20260906033906 41 22 0.0 0.0 0.00 0.00 0.00 81 1014.6
20260906033606 41 22 0.0 0.0 0.00 0.00 0.00 80 1014.6
20260906033305 41 337 0.0 0.0 0.00 0.00 0.00 80 1014.6
20260906032706 41 22 0.0 0.0 0.00 0.00 0.00 79 1014.6
20260906032405 41 22 0.0 0.0 0.00 0.00 0.00 79 1014.6
20260906032105 42 45 0.0 0.0 0.00 0.00 0.00 79 1014.6
20260906031806 41 67 0.0 0.0 0.00 0.00 0.00 79 1014.6
20260906031506 41 67 0.0 0.0 0.00 0.00 0.00 78 1014.6
20260906031206 41 67 1.0 1.0 0.00 0.00 0.00 79 1014.6
20260906030606 42 337 0.0 0.0 0.00 0.00 0.00 79 1014.4
20260906030305 41 180 0.0 0.0 0.00 0.00 0.00 78 1014.4
20260906030006 41 180 0.0 0.0 0.00 0.00 0.00 78 1014.4
20260906025706 41 180 0.0 0.0 0.00 0.00 0.00 79 1014.4
20260906025406 42 180 0.0 0.0 0.00 0.00 0.00 79 1014.1
20260906025106 42 337 0.0 0.0 0.00 0.00 0.00 79 1014.1
20260906024506 42 180 0.0 0.0 0.00 0.00 0.00 79 1014.1
20260906024206 42 337 0.0 0.0 0.00 0.00 0.00 79 1014.1
20260906023905 42 180 0.0 0.0 0.00 0.00 0.00 79 1014.1
20260906023606 42 180 0.0 0.0 0.00 0.00 0.00 79 1014.1
20260906023306 42 180 0.0 0.0 0.00 0.00 0.00 79 1014.1
20260906023006 42 180 0.0 0.0 0.00 0.00 0.00 78 1014.1
20260906022708 42 180 0.0 0.0 0.00 0.00 0.00 78 1014.1
20260906022406 43 180 0.0 0.0 0.00 0.00 0.00 78 1014.1
20260906022105 42 180 0.0 0.0 0.00 0.00 0.00 78 1014.1
20260906021806 42 180 0.0 0.0 0.00 0.00 0.00 78 1014.1
20260906021506 43 180 0.0 0.0 0.00 0.00 0.00 79 1014.1
20260906021206 43 180 0.0 0.0 0.00 0.00 0.00 79 1014.1
20260906020906 43 180 0.0 0.0 0.00 0.00 0.00 79 1014.1
20260906020606 43 180 0.0 0.0 0.00 0.00 0.00 79 1014.1
20260906015706 43 337 1.0 1.0 0.00 0.00 0.00 78 1013.9
20260906015405 43 180 0.0 0.0 0.00 0.00 0.00 78 1013.9
20260906014806 43 180 0.0 0.0 0.00 0.00 0.00 78 1013.9
20260906014506 43 180 0.0 0.0 0.00 0.00 0.00 78 1013.9
20260906014206 43 180 0.0 0.0 0.00 0.00 0.00 77 1013.9
20260906013905 42 180 0.0 0.0 0.00 0.00 0.00 76 1013.9
20260906013606 42 180 0.0 0.0 0.00 0.00 0.00 76 1013.9
20260906013306 43 180 0.0 0.0 0.00 0.00 0.00 76 1013.6
20260906013008 43 337 0.0 0.0 0.00 0.00 0.00 77 1013.6
20260906012706 43 180 0.0 0.0 0.00 0.00 0.00 77 1013.9
20260906012406 43 180 0.0 0.0 0.00 0.00 0.00 77 1013.9
20260906012106 43 180 0.0 0.0 0.00 0.00 0.00 76 1013.6
20260906011806 43 180 0.0 0.0 0.00 0.00 0.00 76 1013.6
20260906011506 43 180 0.0 0.0 0.00 0.00 0.00 76 1013.6
20260906011205 43 180 0.0 0.0 0.00 0.00 0.00 76 1013.6
20260906010606 44 180 0.0 0.0 0.00 0.00 0.00 76 1013.6
20260906010306 43 180 0.0 0.0 0.00 0.00 0.00 76 1013.6
20260906010006 43 180 0.0 0.0 0.00 0.00 0.00 76 1013.6
20260906005706 43 180 0.0 0.0 0.00 0.00 0.00 76 1013.6
20260906005105 44 337 0.0 0.0 0.00 0.00 0.00 76 1013.9
20260906004806 44 337 0.0 0.0 0.00 0.00 0.00 77 1013.6
20260906004505 44 180 0.0 0.0 0.00 0.00 0.00 77 1013.6
20260906004206 44 180 0.0 0.0 0.00 0.00 0.00 76 1013.6
20260906003906 44 180 0.0 0.0 0.00 0.00 0.00 77 1013.9
20260906003606 44 180 0.0 0.0 0.00 0.00 0.00 77 1013.6
20260906003005 45 180 0.0 0.0 0.00 0.00 0.00 77 1013.6
20260906002705 45 157 0.0 0.0 0.00 0.00 0.00 76 1013.6
20260906002406 44 90 0.0 0.0 0.00 0.00 0.00 76 1013.6
20260906002106 44 337 0.0 0.0 0.00 0.00 0.00 76 1013.4
20260906001805 44 90 0.0 0.0 0.00 0.00 0.00 76 1013.6
20260906001506 45 90 0.0 0.0 0.00 0.00 0.00 76 1013.6
20260906001209 44 337 0.0 0.0 0.00 0.00 0.00 76 1013.6
20260906000906 45 90 0.0 0.0 0.00 0.00 0.00 76 1013.6
20260906000606 45 180 0.0 0.0 0.00 0.00 0.00 76 1013.6
20260906000307 45 180 0.0 0.0 0.00 0.00 0.00 77 1013.6
20260906000005 46 180 0.0 0.0 0.00 0.00 0.00 77 1013.6
20260905235705 46 180 0.0 0.0 0.00 0.00 0.00 77 1013.6
20260905235405 46 157 0.0 0.0 0.00 0.00 0.00 76 1013.6
20260905234805 45 90 0.0 0.0 0.00 0.00 0.00 75 1013.6
20260905234506 45 90 0.0 0.0 0.00 0.00 0.00 75 1013.4
20260905234206 45 90 0.0 0.0 0.00 0.00 0.00 75 1013.2
20260905233906 45 90 0.0 0.0 0.00 0.00 0.00 76 1013.4
20260905233606 46 90 0.0 0.0 0.00 0.00 0.00 76 1013.4
20260905233006 46 90 0.0 0.0 0.00 0.00 0.00 76 1013.4
20260905232706 46 90 0.0 0.0 0.00 0.00 0.00 76 1013.4
20260905232406 46 180 0.0 0.0 0.00 0.00 0.00 76 1013.4
20260905232106 47 180 0.0 0.0 0.00 0.00 0.00 76 1013.2
20260905231806 47 90 0.0 0.0 0.00 0.00 0.00 76 1013.2
20260905231509 47 0 0.0 0.0 0.00 0.00 0.00 75 1013.2
20260905231206 46 0 0.0 0.0 0.00 0.00 0.00 75 1013.2
20260905230906 47 337 0.0 0.0 0.00 0.00 0.00 75 1013.2
20260905230606 47 22 0.0 0.0 0.00 0.00 0.00 75 1013.2
20260905230306 47 337 1.0 2.0 0.00 0.00 0.00 75 1013.2
20260905225706 47 180 0.0 0.0 0.00 0.00 0.00 75 1013.2
20260905225406 47 180 0.0 0.0 0.00 0.00 0.00 75 1013.2
20260905225106 47 337 0.0 0.0 0.00 0.00 0.00 75 1013.2
20260905224806 47 180 0.0 0.0 0.00 0.00 0.00 75 1013.2
20260905224506 47 180 0.0 0.0 0.00 0.00 0.00 75 1013.2
20260905224209 47 180 0.0 0.0 0.00 0.00 0.00 74 1013.2
20260905223606 47 180 0.0 0.0 0.00 0.00 0.00 74 1013.2
20260905223006 48 180 0.0 0.0 0.00 0.00 0.00 75 1012.9
20260905222406 47 180 0.0 0.0 0.00 0.00 0.00 75 1012.9
20260905221806 48 180 0.0 0.0 0.00 0.00 0.00 76 1012.9
20260905221505 48 180 0.0 0.0 0.00 0.00 0.00 76 1012.7
20260905221206 48 180 0.0 0.0 0.00 0.00 0.00 75 1012.9
20260905220906 48 180 0.0 0.0 0.00 0.00 0.00 76 1012.9
20260905220606 48 180 0.0 0.0 0.00 0.00 0.00 75 1012.7
20260905220305 48 180 0.0 0.0 0.00 0.00 0.00 73 1012.7
20260905220009 48 180 0.0 0.0 0.00 0.00 0.00 72 1012.7
20260905215705 48 180 0.0 0.0 0.00 0.00 0.00 72 1012.7
20260905215406 48 180 0.0 0.0 0.00 0.00 0.00 72 1012.7
20260905215106 49 180 0.0 0.0 0.00 0.00 0.00 72 1012.7
20260905214806 49 337 0.0 0.0 0.00 0.00 0.00 72 1012.7
20260905214506 49 180 0.0 0.0 0.00 0.00 0.00 72 1012.7
20260905213906 49 180 0.0 0.0 0.00 0.00 0.00 72 1012.7
20260905213606 49 180 0.0 0.0 0.00 0.00 0.00 72 1012.4
20260905213305 49 180 0.0 0.0 0.00 0.00 0.00 72 1012.4
20260905213006 49 180 0.0 0.0 0.00 0.00 0.00 71 1012.4
20260905212706 49 180 0.0 0.0 0.00 0.00 0.00 71 1012.7
20260905212405 49 180 0.0 0.0 0.00 0.00 0.00 72 1012.4
20260905211806 50 180 0.0 0.0 0.00 0.00 0.00 72 1012.4
20260905211506 50 180 0.0 0.0 0.00 0.00 0.00 72 1012.7
20260905211206 51 180 0.0 0.0 0.00 0.00 0.00 72 1012.4
20260905210906 50 180 0.0 0.0 0.00 0.00 0.00 72 1012.4
20260905210605 51 180 0.0 0.0 0.00 0.00 0.00 71 1012.4
20260905210309 51 180 0.0 0.0 0.00 0.00 0.00 71 1012.4
20260905210005 51 180 0.0 0.0 0.00 0.00 0.00 71 1012.4
20260905205706 51 337 0.0 0.0 0.00 0.00 0.00 71 1012.2
20260905205406 51 180 0.0 0.0 0.00 0.00 0.00 71 1012.4
20260905205106 51 337 0.0 0.0 0.00 0.00 0.00 71 1012.2
20260905204806 52 180 0.0 0.0 0.00 0.00 0.00 72 1012.2
20260905204506 52 45 0.0 0.0 0.00 0.00 0.00 72 1012.2
20260905204209 52 337 0.0 0.0 0.00 0.00 0.00 72 1012.2
20260905203906 52 45 0.0 0.0 0.00 0.00 0.00 72 1012.2
20260905203606 52 337 0.0 0.0 0.00 0.00 0.00 72 1012.2
20260905203305 52 45 0.0 0.0 0.00 0.00 0.00 72 1012.2
20260905203005 52 45 0.0 0.0 0.00 0.00 0.00 71 1012.2
20260905202705 52 45 0.0 0.0 0.00 0.00 0.00 71 1012.2
20260905202106 52 45 0.0 0.0 0.00 0.00 0.00 70 1012.2
20260905201806 52 45 0.0 0.0 0.00 0.00 0.00 69 1012.2
20260905201505 51 337 0.0 0.0 0.00 0.00 0.00 69 1012.2
20260905201206 51 45 0.0 0.0 0.00 0.00 0.00 68 1012.2
20260905200906 51 45 0.0 0.0 0.00 0.00 0.00 68 1012.2
20260905200608 51 45 0.0 0.0 0.00 0.00 0.00 68 1012.2
20260905200305 51 45 0.0 0.0 0.00 0.00 0.00 68 1012.2
20260905200006 52 45 0.0 0.0 0.00 0.00 0.00 67 1011.9
20260905195706 52 45 0.0 0.0 0.00 0.00 0.00 67 1011.9
20260905195406 52 45 0.0 0.0 0.00 0.00 0.00 67 1012.2
20260905195105 52 45 0.0 0.0 0.00 0.00 0.00 67 1011.9
20260905194805 52 337 0.0 0.0 0.00 0.00 0.00 67 1011.9
20260905194509 52 45 0.0 0.0 0.00 0.00 0.00 66 1011.7
20260905194206 52 45 0.0 0.0 0.00 0.00 0.00 66 1011.7
20260905193905 53 45 0.0 0.0 0.00 0.00 0.00 65 1011.7
20260905193606 53 45 0.0 0.0 0.00 0.00 0.00 65 1011.9
20260905193306 53 337 0.0 0.0 0.00 0.00 0.00 65 1011.7
20260905193007 53 45 0.0 0.0 0.00 0.00 0.00 65 1011.7
20260905192706 53 45 0.0 0.0 0.00 0.00 0.00 65 1011.7
20260905192106 54 45 0.0 0.0 0.00 0.00 0.00 64 1011.7
20260905191806 54 45 0.0 0.0 0.00 0.00 0.00 64 1011.7
20260905191505 54 45 0.0 0.0 0.00 0.00 0.00 64 1011.7
20260905191206 54 22 0.0 0.0 0.00 0.00 0.00 64 1011.7
20260905190605 55 22 0.0 0.0 0.00 0.00 0.00 63 1011.7
20260905190306 55 22 0.0 0.0 0.00 0.00 0.00 63 1011.7
20260905190006 55 22 0.0 0.0 0.00 0.00 0.00 63 1011.4
20260905185706 55 0 0.0 0.0 0.00 0.00 0.00 62 1011.4
20260905185105 56 0 0.0 0.0 0.00 0.00 0.00 62 1011.7
20260905184805 57 0 0.0 0.0 0.00 0.00 0.00 61 1011.7
20260905184505 57 0 0.0 0.0 0.00 0.00 0.00 60 1011.4
20260905184206 57 0 0.0 0.0 0.00 0.00 0.00 59 1011.4
20260905183906 58 0 0.0 0.0 0.00 0.00 0.00 59 1011.4
20260905183307 59 0 1.0 1.0 0.00 0.00 0.00 58 1011.4
20260905183006 59 0 1.0 1.0 0.00 0.00 0.00 57 1011.2
20260905182706 60 0 0.0 0.0 0.00 0.00 0.00 57 1011.2
20260905182406 61 0 1.0 1.0 0.00 0.00 0.00 57 1011.2
20260905182106 61 337 2.0 2.0 0.00 0.00 0.00 56 1011.2
20260905181806 61 315 1.0 1.0 0.00 0.00 0.00 55 1011.2
20260905181206 61 315 2.0 2.0 0.00 0.00 0.00 56 1011.2
20260905180906 62 315 1.0 2.0 0.00 0.00 0.00 55 1010.9
20260905180605 62 315 3.0 3.0 0.00 0.00 0.00 54 1010.9
20260905180306 62 270 4.0 4.0 0.00 0.00 0.00 54 1010.9
20260905180005 63 270 5.0 5.0 0.00 0.00 0.00 54 1010.9
20260905175706 63 270 4.0 4.0 0.00 0.00 0.00 54 1010.9
20260905175408 63 315 3.0 3.0 0.00 0.00 0.00 54 1010.7
20260905175106 62 292 4.0 4.0 0.00 0.00 0.00 55 1010.9
20260905174806 63 247 0.0 0.0 0.00 0.00 0.00 55 1010.7
20260905174505 63 337 1.0 1.0 0.00 0.00 0.00 54 1010.7
20260905174206 64 292 1.0 1.0 0.00 0.00 0.00 54 1010.7
20260905173906 64 292 1.0 1.0 0.00 0.00 0.00 54 1010.7
20260905173306 64 315 2.0 2.0 0.00 0.00 0.00 54 1010.7
20260905173006 65 315 2.0 2.0 0.00 0.00 0.00 53 1010.7
20260905172706 65 0 1.0 1.0 0.00 0.00 0.00 54 1010.7
20260905172406 65 337 1.0 1.0 0.00 0.00 0.00 53 1010.7
20260905172106 65 292 2.0 2.0 0.00 0.00 0.00 52 1010.4
20260905171806 66 337 4.0 4.0 0.00 0.00 0.00 52 1010.4
20260905171205 66 315 3.0 3.0 0.00 0.00 0.00 52 1010.4
20260905170906 66 292 3.0 3.0 0.00 0.00 0.00 52 1010.4
20260905170605 67 315 5.0 5.0 0.00 0.00 0.00 53 1010.4
20260905170305 67 292 2.0 2.0 0.00 0.00 0.00 52 1010.4
20260905170006 67 315 3.0 3.0 0.00 0.00 0.00 52 1010.4
20260905165706 67 337 4.0 4.0 0.00 0.00 0.00 51 1010.2
20260905165409 68 292 4.0 4.0 0.00 0.00 0.00 50 1010.2
20260905165106 69 337 6.0 6.0 0.00 0.00 0.00 51 1010.2
20260905164806 68 337 6.0 6.0 0.00 0.00 0.00 50 1010.2
20260905164506 69 270 3.0 3.0 0.00 0.00 0.00 51 1010.2
20260905164206 69 270 5.0 5.0 0.00 0.00 0.00 51 1010.2
20260905163906 69 315 4.0 4.0 0.00 0.00 0.00 50 1010.2
20260905163608 70 315 4.0 4.0 0.00 0.00 0.00 50 1010.2
20260905163306 69 315 5.0 5.0 0.00 0.00 0.00 50 1010.2
20260905163005 69 270 9.0 9.0 0.00 0.00 0.00 50 1010.2
20260905162705 68 247 9.0 9.0 0.00 0.00 0.00 50 1009.9
20260905162406 69 337 6.0 6.0 0.00 0.00 0.00 50 1009.7
20260905162105 68 337 7.0 7.0 0.00 0.00 0.00 50 1009.7
20260905161809 68 337 5.0 5.0 0.00 0.00 0.00 50 1009.7
20260905161505 68 292 4.0 4.0 0.00 0.00 0.00 51 1009.7
20260905161205 67 270 6.0 6.0 0.00 0.00 0.00 50 1009.7
20260905160906 68 292 5.0 5.0 0.00 0.00 0.00 51 1009.7
20260905160606 67 315 8.0 8.0 0.00 0.00 0.00 50 1009.7
20260905160306 67 270 10.0 10.0 0.00 0.00 0.00 50 1009.7
20260905155706 67 292 15.0 15.0 0.00 0.00 0.00 50 1009.4
20260905155406 67 270 9.0 9.0 0.00 0.00 0.00 49 1009.4
20260905155107 68 270 5.0 5.0 0.00 0.00 0.00 48 1009.4
20260905154805 69 315 6.0 6.0 0.00 0.00 0.00 48 1009.4
20260905154506 70 0 6.0 6.0 0.00 0.00 0.00 48 1009.2
20260905154205 70 270 12.0 12.0 0.00 0.00 0.00 48 1009.7
20260905153605 69 315 5.0 5.0 0.00 0.00 0.00 48 1009.4
20260905153306 69 315 7.0 7.0 0.00 0.00 0.00 47 1009.2
20260905153005 71 337 8.0 8.0 0.00 0.00 0.00 47 1009.2
20260905152707 71 270 10.0 10.0 0.00 0.00 0.00 48 1009.2
20260905152407 71 247 3.0 3.0 0.00 0.00 0.00 47 1009.2
20260905152106 71 270 4.0 4.0 0.00 0.00 0.00 46 1009.2
20260905151506 72 247 8.0 8.0 0.00 0.00 0.00 47 1009.2
20260905151206 71 292 4.0 4.0 0.00 0.00 0.00 47 1009.2
20260905150906 71 337 7.0 7.0 0.00 0.00 0.00 46 1009.2
20260905150307 70 270 11.0 12.0 0.00 0.00 0.00 46 1009.2
20260905150006 71 270 8.0 8.0 0.00 0.00 0.00 47 1009.2
20260905145706 70 315 6.0 6.0 0.00 0.00 0.00 47 1009.2
20260905145406 70 337 11.0 11.0 0.00 0.00 0.00 46 1009.2
20260905145106 71 0 6.0 6.0 0.00 0.00 0.00 49 1008.9
20260905144806 70 337 3.0 4.0 0.00 0.00 0.00 48 1008.9
20260905144205 70 337 4.0 4.0 0.00 0.00 0.00 47 1008.9
20260905143905 71 0 11.0 11.0 0.00 0.00 0.00 45 1009.2
20260905143605 71 247 8.0 8.0 0.00 0.00 0.00 46 1008.9
20260905143306 72 247 4.0 4.0 0.00 0.00 0.00 46 1008.9
20260905143005 71 270 3.0 3.0 0.00 0.00 0.00 46 1008.9
20260905142406 71 225 9.0 9.0 0.00 0.00 0.00 45 1008.9
20260905142105 72 337 8.0 8.0 0.00 0.00 0.00 46 1008.9
20260905141806 72 270 7.0 7.0 0.00 0.00 0.00 46 1009.2
20260905141506 72 247 8.0 8.0 0.00 0.00 0.00 47 1008.9
20260905141206 72 315 5.0 5.0 0.00 0.00 0.00 47 1008.9
20260905140606 70 292 11.0 12.0 0.00 0.00 0.00 47 1008.7
20260905140306 70 270 10.0 10.0 0.00 0.00 0.00 46 1008.9
20260905140006 71 315 5.0 5.0 0.00 0.00 0.00 45 1008.7
20260905135706 70 270 6.0 6.0 0.00 0.00 0.00 45 1008.7
20260905135408 70 315 9.0 9.0 0.00 0.00 0.00 46 1008.7
20260905135106 70 337 4.0 4.0 0.00 0.00 0.00 45 1008.7
20260905134806 71 247 5.0 5.0 0.00 0.00 0.00 44 1008.7
20260905134506 72 315 5.0 5.0 0.00 0.00 0.00 45 1008.7
20260905134206 73 270 6.0 6.0 0.00 0.00 0.00 46 1008.7
20260905133905 73 247 15.0 15.0 0.00 0.00 0.00 44 1008.7
20260905133605 72 247 10.0 10.0 0.00 0.00 0.00 46 1008.7
20260905133308 71 315 6.0 6.0 0.00 0.00 0.00 44 1008.7
20260905133006 72 270 7.0 7.0 0.00 0.00 0.00 44 1008.7
20260905132706 71 270 12.0 12.0 0.00 0.00 0.00 45 1008.7
20260905132406 71 247 13.0 13.0 0.00 0.00 0.00 47 1008.7
20260905132106 72 315 5.0 5.0 0.00 0.00 0.00 47 1008.7
20260905131806 72 225 9.0 9.0 0.00 0.00 0.00 48 1008.5
20260905131506 72 270 3.0 3.0 0.00 0.00 0.00 46 1008.5
20260905131208 71 315 12.0 12.0 0.00 0.00 0.00 45 1008.7
20260905130905 71 225 9.0 9.0 0.00 0.00 0.00 45 1008.7
20260905130606 71 225 8.0 8.0 0.00 0.00 0.00 47 1008.7
20260905130306 71 270 10.0 10.0 0.00 0.00 0.00 46 1008.7
20260905130006 72 337 5.0 5.0 0.00 0.00 0.00 47 1008.7
20260905125406 71 337 8.0 8.0 0.00 0.00 0.00 47 1008.5
20260905125105 71 270 10.0 11.0 0.00 0.00 0.00 48 1008.2
20260905124805 70 292 4.0 4.0 0.00 0.00 0.00 49 1008.5
20260905124505 70 337 8.0 8.0 0.00 0.00 0.00 50 1008.5
20260905124206 70 225 5.0 5.0 0.00 0.00 0.00 49 1008.5
20260905123906 70 337 6.0 6.0 0.00 0.00 0.00 51 1008.2
20260905123306 69 247 4.0 4.0 0.00 0.00 0.00 52 1008.2
20260905123005 69 337 4.0 4.0 0.00 0.00 0.00 53 1008.2
20260905122705 69 270 6.0 6.0 0.00 0.00 0.00 53 1008.2
20260905122406 68 315 7.0 7.0 0.00 0.00 0.00 50 1008.5
20260905122106 69 270 5.0 5.0 0.00 0.00 0.00 54 1008.2
20260905121808 67 337 5.0 5.0 0.00 0.00 0.00 51 1008.5
20260905121506 67 270 4.0 4.0 0.00 0.00 0.00 51 1008.2
20260905121206 68 337 6.0 6.0 0.00 0.00 0.00 51 1008.2
20260905120906 67 270 12.0 12.0 0.00 0.00 0.00 50 1008.2
20260905120606 68 225 9.0 9.0 0.00 0.00 0.00 50 1008.2
20260905120305 68 337 14.0 14.0 0.00 0.00 0.00 48 1008.2
20260905120005 69 292 9.0 9.0 0.00 0.00 0.00 49 1008.2
20260905115405 68 292 5.0 5.0 0.00 0.00 0.00 49 1008.2
20260905115106 69 315 8.0 8.0 0.00 0.00 0.00 50 1008.2
20260905114806 69 292 3.0 4.0 0.00 0.00 0.00 50 1008.2
20260905114506 70 247 4.0 4.0 0.00 0.00 0.00 50 1008.2
20260905114205 68 270 8.0 8.0 0.00 0.00 0.00 49 1008.2
20260905113906 68 337 10.0 10.0 0.00 0.00 0.00 49 1008.2
20260905113305 69 292 9.0 9.0 0.00 0.00 0.00 50 1008.2
20260905113005 70 337 10.0 10.0 0.00 0.00 0.00 53 1008.2
20260905112705 69 337 6.0 6.0 0.00 0.00 0.00 52 1008.5
20260905112406 69 270 7.0 7.0 0.00 0.00 0.00 51 1008.5
20260905112107 69 337 7.0 7.0 0.00 0.00 0.00 51 1008.5
20260905111805 69 225 4.0 4.0 0.00 0.00 0.00 54 1008.5
20260905111509 68 337 8.0 8.0 0.00 0.00 0.00 53 1008.2
20260905111206 68 225 4.0 4.0 0.00 0.00 0.00 56 1008.5
20260905110905 68 270 14.0 14.0 0.00 0.00 0.00 56 1008.2
20260905110606 67 315 6.0 7.0 0.00 0.00 0.00 57 1008.5
20260905110306 67 270 10.0 10.0 0.00 0.00 0.00 58 1008.7
20260905110006 65 270 8.0 8.0 0.00 0.00 0.00 57 1008.5
20260905105405 66 292 6.0 6.0 0.00 0.00 0.00 55 1008.5
20260905105106 67 270 13.0 13.0 0.00 0.00 0.00 55 1008.5
20260905104806 68 270 8.0 8.0 0.00 0.00 0.00 56 1008.2
20260905104505 69 292 5.0 5.0 0.00 0.00 0.00 56 1008.2
20260905104206 68 292 6.0 6.0 0.00 0.00 0.00 57 1008.5
20260905103907 66 22 4.0 4.0 0.00 0.00 0.00 56 1008.5
20260905103306 67 315 4.0 4.0 0.00 0.00 0.00 57 1008.2
20260905103005 68 292 16.0 16.0 0.00 0.00 0.00 56 1008.5
20260905102705 68 247 7.0 7.0 0.00 0.00 0.00 59 1008.5
20260905102407 68 337 6.0 6.0 0.00 0.00 0.00 58 1008.2
20260905102106 68 225 5.0 5.0 0.00 0.00 0.00 59 1008.5
20260905101809 68 270 9.0 9.0 0.00 0.00 0.00 61 1008.5
20260905101506 68 202 3.0 3.0 0.00 0.00 0.00 63 1008.7
20260905101205 66 315 6.0 6.0 0.00 0.00 0.00 62 1008.5
20260905100906 66 225 6.0 6.0 0.00 0.00 0.00 62 1008.5
20260905100606 65 247 7.0 7.0 0.00 0.00 0.00 62 1008.5
20260905100306 65 292 8.0 8.0 0.00 0.00 0.00 63 1008.5
20260905100005 64 270 10.0 10.0 0.00 0.00 0.00 62 1008.5
20260905095407 64 337 13.0 13.0 0.00 0.00 0.00 62 1008.5
20260905095106 65 247 4.0 4.0 0.00 0.00 0.00 61 1008.5
20260905094806 65 180 3.0 3.0 0.00 0.00 0.00 62 1008.5
20260905094506 66 292 9.0 9.0 0.00 0.00 0.00 63 1008.2
20260905094206 67 270 6.0 6.0 0.00 0.00 0.00 65 1008.2
20260905093906 65 270 5.0 5.0 0.00 0.00 0.00 62 1008.2
20260905093305 66 337 5.0 5.0 0.00 0.00 0.00 65 1008.2
20260905093006 66 315 9.0 9.0 0.00 0.00 0.00 65 1008.2
20260905092706 65 202 6.0 6.0 0.00 0.00 0.00 66 1008.2
20260905092406 65 337 8.0 8.0 0.00 0.00 0.00 66 1008.5
20260905092106 65 270 10.0 10.0 0.00 0.00 0.00 67 1008.2
20260905091507 65 247 3.0 3.0 0.00 0.00 0.00 67 1008.2